When you browse on this site, cookies collect data to enhance your experience and personalize the content and advertising you see.
Visit our Privacy Policy to learn more. By continuing to use the site, you agree to this use of cookies and data.

Tiempo cada hora Igls

Hoy, 10 Julio, Viernes

Tiempo Temperatura Precipitaciones Viento Presión Humedad
00:00 +16°C° 0 mm 1 mps 686 mmHg 85%
01:00 +16°C° 0 mm 1 mps 686 mmHg 85%
02:00 +16°C° 0 mm 1 mps 686 mmHg 85%
03:00 +16°C° 0 mm 1 mps 685 mmHg 84%
04:00 +16°C° 0 mm 1 mps 685 mmHg 84%
05:00 +19°C° 0 mm 1 mps 685 mmHg 78%
06:00 +21°C° 0 mm 1 mps 686 mmHg 72%
07:00 +23°C° 0 mm 1 mps 686 mmHg 66%
08:00 +25°C° 0 mm 1 mps 686 mmHg 58%
09:00 +27°C° 0 mm 1 mps 686 mmHg 50%
10:00 +30°C° 0 mm 1 mps 687 mmHg 43%
11:00 +30°C° 0 mm 1 mps 686 mmHg 41%
12:00 +31°C° 0 mm 1 mps 686 mmHg 39%
13:00 +31°C° 0 mm 2 mps 686 mmHg 36%
14:00 +29°C° 0.7 mm 2 mps 686 mmHg 47%
15:00 +27°C° 0.7 mm 2 mps 685 mmHg 58%
16:00 +25°C° 0.7 mm 2 mps 685 mmHg 68%
17:00 +24°C° 2 mm 2 mps 685 mmHg 76%
18:00 +23°C° 2 mm 1 mps 685 mmHg 83%
19:00 +22°C° 2 mm 1 mps 685 mmHg 91%
20:00 +21°C° 0.9 mm 1 mps 685 mmHg 93%
21:00 +19°C° 0.9 mm 1 mps 685 mmHg 95%
22:00 +18°C° 0.9 mm 1 mps 685 mmHg 96%
23:00 +18°C° 0.9 mm 1 mps 685 mmHg 97%

Mañana, 11 Julio, Sábado

Tiempo Temperatura Precipitaciones Viento Presión Humedad
00:00 +16°C° 0.9 mm 0 mps 685 mmHg 97%
01:00 +16°C° 0.9 mm 0 mps 685 mmHg 98%
02:00 +18°C° 1.2 mm 1 mps 685 mmHg 98%
03:00 +18°C° 1.2 mm 1 mps 685 mmHg 98%
04:00 +18°C° 1.2 mm 1 mps 685 mmHg 99%
05:00 +16°C° 3.2 mm 2 mps 685 mmHg 98%
06:00 +15°C° 3.2 mm 2 mps 685 mmHg 98%
07:00 +15°C° 3.2 mm 2 mps 685 mmHg 98%
08:00 +15°C° 1.2 mm 2 mps 685 mmHg 98%
09:00 +14°C° 1.2 mm 2 mps 685 mmHg 97%
10:00 +14°C° 1.2 mm 2 mps 686 mmHg 97%
11:00 +14°C° 1 mm 1 mps 686 mmHg 95%
12:00 +15°C° 1 mm 1 mps 686 mmHg 94%
13:00 +15°C° 1 mm 1 mps 686 mmHg 93%
14:00 +15°C° 2 mm 1 mps 686 mmHg 94%
15:00 +14°C° 2 mm 1 mps 687 mmHg 94%
16:00 +14°C° 2 mm 1 mps 687 mmHg 95%
17:00 +14°C° 1.2 mm 1 mps 687 mmHg 95%
18:00 +14°C° 1.2 mm 1 mps 687 mmHg 95%
19:00 +14°C° 1.2 mm 1 mps 687 mmHg 95%
20:00 +13°C° 0 mm 1 mps 687 mmHg 96%
21:00 +12°C° 0 mm 1 mps 688 mmHg 97%
22:00 +12°C° 0 mm 1 mps 688 mmHg 98%
23:00 +12°C° 0.1 mm 1 mps 688 mmHg 98%

Pasado mañana, 12 Julio, Domingo

Tiempo Temperatura Precipitaciones Viento Presión Humedad
00:00 +12°C° 0.1 mm 1 mps 688 mmHg 97%
01:00 +12°C° 0.1 mm 1 mps 688 mmHg 97%
02:00 +12°C° 0 mm 1 mps 688 mmHg 97%
03:00 +11°C° 0 mm 1 mps 688 mmHg 97%
04:00 +11°C° 0 mm 1 mps 688 mmHg 97%
05:00 +12°C° 0 mm 1 mps 688 mmHg 95%
06:00 +13°C° 0 mm 1 mps 689 mmHg 92%
07:00 +14°C° 0 mm 1 mps 689 mmHg 90%
08:00 +15°C° 0 mm 1 mps 689 mmHg 81%
09:00 +18°C° 0 mm 1 mps 689 mmHg 72%
10:00 +19°C° 0 mm 1 mps 690 mmHg 63%
11:00 +19°C° 0 mm 2 mps 690 mmHg 59%
12:00 +20°C° 0 mm 2 mps 690 mmHg 54%
13:00 +21°C° 0 mm 2 mps 690 mmHg 49%
14:00 +21°C° 0 mm 2 mps 690 mmHg 51%
15:00 +20°C° 0 mm 2 mps 690 mmHg 53%
16:00 +20°C° 0 mm 2 mps 689 mmHg 54%
17:00 +19°C° 0 mm 2 mps 689 mmHg 60%
18:00 +19°C° 0 mm 2 mps 689 mmHg 66%
19:00 +18°C° 0 mm 2 mps 689 mmHg 72%
20:00 +16°C° 0 mm 1 mps 689 mmHg 79%
21:00 +13°C° 0 mm 1 mps 689 mmHg 87%
22:00 +10°C° 0 mm 0 mps 689 mmHg 94%
23:00 +10°C° 0 mm 0 mps 689 mmHg 94%

13 Julio, Lunes

Tiempo Temperatura Precipitaciones Viento Presión Humedad
00:00 +10°C° 0 mm 0 mps 689 mmHg 93%
01:00 +9°C° 0 mm 0 mps 688 mmHg 93%
02:00 +9°C° 0 mm 0 mps 688 mmHg 93%
03:00 +9°C° 0 mm 0 mps 688 mmHg 93%
04:00 +9°C° 0 mm 0 mps 688 mmHg 93%
05:00 +11°C° 0 mm 0 mps 688 mmHg 87%
06:00 +13°C° 0 mm 0 mps 689 mmHg 81%
07:00 +15°C° 0 mm 0 mps 689 mmHg 75%
08:00 +19°C° 0 mm 1 mps 689 mmHg 66%
09:00 +21°C° 0 mm 1 mps 689 mmHg 57%
10:00 +23°C° 0 mm 1 mps 690 mmHg 48%
11:00 +24°C° 0 mm 2 mps 690 mmHg 44%
12:00 +25°C° 0 mm 2 mps 689 mmHg 40%
13:00 +26°C° 0 mm 2 mps 689 mmHg 37%
14:00 +25°C° 0 mm 2 mps 689 mmHg 39%
15:00 +25°C° 0 mm 2 mps 688 mmHg 41%
16:00 +25°C° 0 mm 2 mps 688 mmHg 42%
17:00 +23°C° 0 mm 2 mps 688 mmHg 52%
18:00 +21°C° 0 mm 2 mps 687 mmHg 62%
19:00 +19°C° 0 mm 2 mps 687 mmHg 71%
20:00 +18°C° 0 mm 1 mps 687 mmHg 79%
21:00 +15°C° 0 mm 1 mps 687 mmHg 86%
22:00 +12°C° 0 mm 0 mps 687 mmHg 93%
23:00 +11°C° 0 mm 0 mps 687 mmHg 94%

14 Julio, Martes

Tiempo Temperatura Precipitaciones Viento Presión Humedad
00:00 +11°C° 0 mm 0 mps 686 mmHg 94%
01:00 +12°C° 0 mm 1 mps 686 mmHg 94%
02:00 +12°C° 0 mm 1 mps 686 mmHg 94%
03:00 +12°C° 0 mm 1 mps 686 mmHg 94%
04:00 +12°C° 0 mm 1 mps 685 mmHg 94%
05:00 +12°C° 0 mm 0 mps 686 mmHg 89%
06:00 +14°C° 0 mm 0 mps 686 mmHg 84%
07:00 +16°C° 0 mm 0 mps 687 mmHg 79%
08:00 +20°C° 0 mm 1 mps 687 mmHg 71%
09:00 +21°C° 0 mm 1 mps 687 mmHg 62%
10:00 +23°C° 0 mm 1 mps 687 mmHg 54%
11:00 +24°C° 0 mm 1 mps 687 mmHg 51%
12:00 +24°C° 0 mm 1 mps 687 mmHg 48%
13:00 +25°C° 0 mm 2 mps 686 mmHg 45%
14:00 +24°C° 0.4 mm 2 mps 686 mmHg 53%
15:00 +23°C° 0.4 mm 2 mps 686 mmHg 61%
16:00 +21°C° 0.4 mm 2 mps 685 mmHg 69%
17:00 +20°C° 0.7 mm 2 mps 685 mmHg 76%
18:00 +20°C° 0.7 mm 1 mps 685 mmHg 83%
19:00 +19°C° 0.7 mm 1 mps 685 mmHg 91%
20:00 +18°C° 0.8 mm 1 mps 685 mmHg 91%
21:00 +16°C° 0.8 mm 1 mps 685 mmHg 92%
22:00 +15°C° 0.8 mm 1 mps 685 mmHg 93%
23:00 +15°C° 1 mm 1 mps 685 mmHg 94%

15 Julio, Miércoles

Tiempo Temperatura Precipitaciones Viento Presión Humedad
00:00 +15°C° 1 mm 1 mps 685 mmHg 95%
01:00 +14°C° 1 mm 1 mps 685 mmHg 96%
02:00 +14°C° 0.3 mm 1 mps 685 mmHg 95%
03:00 +14°C° 0.3 mm 1 mps 685 mmHg 95%
04:00 +14°C° 0.3 mm 1 mps 685 mmHg 94%
05:00 +15°C° 0 mm 1 mps 685 mmHg 92%
06:00 +15°C° 0 mm 1 mps 685 mmHg 89%
07:00 +15°C° 0 mm 0 mps 685 mmHg 86%
08:00 +19°C° 0.1 mm 1 mps 686 mmHg 76%
09:00 +21°C° 0.1 mm 1 mps 686 mmHg 65%
10:00 +23°C° 0.1 mm 1 mps 686 mmHg 55%
11:00 +23°C° 0.2 mm 1 mps 686 mmHg 54%
12:00 +23°C° 0.2 mm 2 mps 686 mmHg 53%
13:00 +24°C° 0.2 mm 2 mps 686 mmHg 52%
14:00 +23°C° 0.4 mm 2 mps 686 mmHg 58%
15:00 +21°C° 0.4 mm 2 mps 686 mmHg 64%
16:00 +21°C° 0.4 mm 2 mps 685 mmHg 71%
17:00 +20°C° 0.4 mm 2 mps 685 mmHg 77%
18:00 +19°C° 0.4 mm 2 mps 685 mmHg 84%
19:00 +19°C° 0.4 mm 1 mps 686 mmHg 91%
20:00 +18°C° 0.2 mm 1 mps 686 mmHg 93%
21:00 +16°C° 0.2 mm 1 mps 686 mmHg 95%
22:00 +16°C° 0.2 mm 1 mps 686 mmHg 97%
23:00 +15°C° 0.1 mm 0 mps 686 mmHg 97%
Mostrar más